View from above orbital plane
|
View from above satellite
|
Ground track
|
The orbit data is extracted from the following two-line orbital elements,
1 14781U 84021B 19347.81445036 .00000062 00000-0 13716-4 0 9991
2 14781 97.5992 3.9914 0010010 94.3742 265.8617 14.83127340925162
Epoch (UTC): | 13 December 2019 19:32:48 |
Eccentricity: | 0.0010010 |
inclination: | 97.5992° |
perigee height: | 612 km |
apogee height: | 626 km |
right ascension of ascending node: | 3.9914° |
argument of perigee: | 94.3742° |
revolutions per day: | 14.83127340 |
mean anomaly at epoch: | 265.8617° |
orbit number at epoch: | 92516 |
The dashed part of the orbit path shows where the satellite is in the earth's shadow,
|
|